Theta_e
324 325 326 327 327 327 328 328 328 328 327 327 328 329 329 329 329 330 330 330 330 330 330 330 331 331 331 331 331 331 330 329 329 329 328 329 329 329 328 327 326 326 326 326 326 326 327 328 328 327 325 323 322 320 319 317 316 316 315 315 315 315 314 314 313 311 309 306 304 301 300 298 297 296 295 294 293 293 292 292 292 292 292 292 293 294
322 324 325 326 327 327 327 327 328 327 327 326 327 327 328 328 328 329 329 330 330 329 329 329 329 330 330 330 330 330 329 329 329 328 329 329 329 329 329 328 328 328 327 326 326 326 326 326 325 324 322 321 320 319 317 316 316 316 315 316 316 316 315 313 311 308 306 303 301 300 299 298 296 295 294 293 293 292 292 292 292 292 292 293 293 294
320 322 323 324 325 326 325 326 326 327 326 326 326 327 327 327 327 328 328 328 328 328 328 328 328 328 329 329 329 329 329 329 328 328 329 329 329 329 329 329 328 328 327 326 326 325 324 323 323 322 321 320 319 318 317 316 316 316 316 316 316 315 313 311 308 305 303 301 300 299 299 297 296 294 293 292 292 292 292 292 292 292 292 292 293 293
316 318 320 322 323 324 324 324 325 325 325 325 325 326 326 326 326 326 327 327 328 328 327 327 327 327 328 328 328 328 328 329 329 329 329 329 329 328 328 327 326 325 324 324 323 322 321 321 320 320 320 319 318 317 316 316 315 316 316 316 315 313 310 307 305 302 301 300 300 299 298 297 295 293 292 292 292 292 291 291 291 291 292 292 293 293
312 314 318 320 321 321 322 323 323 323 324 324 324 324 325 324 324 324 325 326 326 326 327 327 327 327 327 327 327 327 328 328 328 328 328 328 327 326 325 323 322 321 320 320 320 319 319 319 320 319 318 317 316 315 315 315 315 315 315 313 311 309 306 303 301 300 299 299 299 299 298 295 294 293 292 292 291 291 291 291 291 291 292 292 292 293
311 313 316 318 319 319 320 320 320 321 321 321 322 322 323 323 323 323 323 323 324 324 324 325 325 326 325 325 325 325 326 326 326 326 326 325 324 322 320 319 318 318 318 318 318 318 318 319 319 317 316 314 314 314 315 315 315 314 312 309 307 304 302 300 299 298 298 298 298 298 296 294 293 292 292 291 291 291 290 290 290 291 291 291 292 292
311 313 315 317 317 317 318 317 318 318 318 319 319 320 320 321 321 321 321 321 321 321 321 321 322 322 322 322 322 321 321 321 321 321 321 321 320 319 318 317 316 317 317 318 318 318 318 317 316 314 313 313 313 314 314 314 313 310 308 305 303 302 300 299 298 297 297 298 297 296 294 293 292 292 291 291 290 290 290 290 290 290 290 291 291 292
310 312 314 314 315 315 316 316 316 316 317 317 317 318 318 318 319 319 318 318 319 319 318 318 318 318 318 318 318 318 317 316 316 316 316 316 317 317 317 317 318 318 318 318 317 316 315 314 313 313 313 313 313 313 313 312 310 308 306 304 302 301 300 298 297 297 297 297 296 294 293 292 292 291 291 290 290 290 290 290 290 290 290 290 291 292
309 309 311 311 312 313 314 314 315 315 316 316 317 316 315 315 315 316 317 316 316 316 316 315 314 314 314 314 314 314 314 314 313 313 313 313 314 315 317 317 318 318 317 316 314 313 313 312 312 313 313 313 313 312 311 310 309 307 305 303 301 300 298 297 297 297 296 295 294 293 292 292 291 291 290 290 290 290 290 289 289 289 289 290 291 293
309 308 308 309 310 311 311 312 313 314 315 315 315 315 314 313 313 313 313 312 313 313 314 313 312 311 311 311 312 312 311 311 311 311 311 311 312 313 314 314 314 314 314 313 312 312 312 312 312 312 312 312 311 311 310 309 307 306 304 302 300 298 297 296 296 296 295 294 292 292 292 291 291 290 290 290 290 290 289 289 289 289 290 290 292 293
309 309 309 309 310 310 310 311 311 313 314 314 314 313 313 313 312 311 309 309 309 310 310 310 310 310 309 309 309 310 309 309 308 308 308 309 309 310 310 310 310 310 310 310 311 311 312 312 312 311 311 311 310 309 308 307 306 304 302 299 297 296 296 296 296 295 293 292 292 291 291 291 290 290 290 290 290 289 289 289 289 290 290 291 292 294
308 309 308 308 309 309 310 310 311 312 313 313 313 312 311 311 311 310 308 307 307 307 307 308 308 308 308 308 308 308 307 307 306 306 306 306 307 307 307 307 306 306 307 307 308 309 310 311 310 310 310 309 308 307 306 305 303 301 299 297 296 295 295 295 294 293 292 291 291 291 291 290 290 290 290 289 289 289 289 289 289 290 291 292 293 295
308 308 308 308 308 308 309 310 311 312 312 311 311 310 310 309 309 309 307 306 305 305 305 305 305 305 306 306 306 306 306 305 304 304 303 303 304 304 304 304 304 304 304 304 304 305 307 308 308 308 308 306 306 305 304 302 301 299 297 296 296 295 295 294 293 292 291 291 291 290 290 290 290 290 290 289 289 289 289 289 290 290 292 293 294 296
308 308 308 307 307 307 308 309 309 309 308 308 308 308 308 308 308 307 305 304 303 303 304 304 303 303 304 304 304 304 304 303 302 302 302 301 301 302 302 302 302 302 302 301 301 302 305 306 306 305 305 304 303 302 301 300 298 297 296 296 296 296 295 293 292 291 291 291 290 290 290 290 290 290 289 289 289 289 289 290 290 291 293 294 295 296
307 306 306 305 305 306 306 306 306 305 305 306 306 306 306 306 306 305 304 302 302 302 302 302 301 301 302 302 302 302 302 302 301 301 300 300 300 300 301 301 300 300 300 300 300 300 303 305 305 304 303 302 301 300 299 298 297 296 296 295 295 295 293 292 292 291 290 290 290 290 290 290 290 289 289 289 289 289 289 290 291 292 294 295 296 297
306 306 304 304 304 304 304 304 304 304 304 305 306 306 306 305 304 304 302 301 301 301 301 301 300 300 299 300 300 301 301 301 301 300 299 299 299 299 300 300 299 299 300 299 299 300 302 303 304 304 303 301 300 299 298 297 296 295 294 294 293 293 292 292 291 291 290 290 290 290 290 290 289 289 289 289 289 289 290 291 292 293 295 296 297 297
306 305 304 304 303 303 304 304 304 304 304 305 305 305 305 304 303 302 302 302 302 302 302 302 301 300 299 298 299 299 300 300 299 299 299 298 298 298 300 300 299 298 298 298 299 299 300 301 302 302 302 301 299 298 297 296 294 293 292 292 292 291 291 291 291 290 290 290 290 290 290 289 289 289 289 289 289 290 290 292 293 294 296 296 297 298
306 306 305 304 303 303 304 304 305 304 304 304 304 304 303 303 302 302 302 303 303 303 303 303 303 301 300 299 299 299 298 298 298 298 297 297 297 297 298 299 298 297 297 297 298 299 299 300 300 300 300 300 299 297 295 294 292 292 291 291 291 291 291 291 290 290 290 290 290 290 289 289 289 289 289 289 289 290 291 293 294 295 296 297 298 298
306 306 305 305 304 304 304 304 305 305 304 304 303 303 302 302 302 302 303 303 303 304 303 303 302 302 300 298 298 298 298 298 298 297 296 295 295 296 296 297 297 296 296 296 296 297 297 298 298 299 299 298 297 295 293 292 291 290 290 290 290 290 290 290 290 290 290 290 290 289 289 289 289 289 289 289 290 291 292 294 295 296 297 297 298 298
306 306 305 305 304 304 304 304 304 305 304 304 303 302 302 302 302 302 302 303 303 303 302 302 300 299 297 296 297 297 297 297 297 295 294 293 294 294 295 295 295 295 294 294 294 295 295 296 296 297 296 296 295 293 292 291 290 290 290 290 290 290 290 290 290 290 290 290 290 289 289 289 288 289 289 289 290 292 293 294 296 296 297 298 298 298
306 306 306 306 305 305 304 304 304 305 305 305 304 303 302 302 302 302 301 301 301 300 299 297 296 295 295 296 296 296 296 297 296 294 293 292 293 293 294 295 294 294 293 293 293 293 294 295 295 295 294 293 292 291 291 290 290 290 290 289 289 290 290 290 290 290 290 290 289 289 289 288 288 289 289 290 291 292 294 295 296 297 297 298 298 299
307 306 306 306 306 306 305 305 305 305 306 306 305 303 302 302 301 300 300 299 298 297 295 294 294 294 295 295 295 296 296 296 295 294 293 292 292 292 293 294 294 293 292 292 292 293 293 293 293 293 292 292 291 291 290 290 290 289 289 289 289 289 290 290 290 290 290 289 289 289 288 288 288 289 289 290 292 293 295 296 297 297 298 298 298 299
307 306 306 306 306 306 306 305 305 305 305 306 305 304 303 302 301 300 299 298 296 295 293 293 293 294 294 294 294 295 295 296 296 295 294 293 292 291 292 294 294 293 292 292 292 292 292 292 292 292 291 291 290 290 290 289 289 289 289 289 289 289 290 290 290 290 290 289 289 288 288 288 289 289 289 291 293 294 296 296 297 297 298 298 299 299
306 306 306 306 306 306 306 306 305 305 305 305 305 304 304 303 302 300 299 298 296 295 294 293 294 294 294 294 294 294 294 295 296 295 294 292 291 291 292 293 293 292 292 292 292 292 292 291 291 291 291 290 290 289 289 289 288 288 288 289 289 289 290 290 290 290 289 289 289 288 288 288 289 289 290 292 293 295 296 297 297 298 298 298 299 299
306 306 306 306 306 306 306 306 306 305 305 305 305 305 304 303 302 301 300 299 297 296 295 295 295 294 293 294 294 293 293 294 295 294 292 291 290 291 292 293 292 291 291 291 291 291 292 291 291 290 290 290 289 289 288 288 288 288 288 289 289 289 290 290 290 289 289 289 288 288 288 288 289 289 291 292 294 296 297 297 297 298 298 299 299 299
306 306 305 305 305 305 305 305 305 306 306 306 305 305 304 303 302 301 300 299 298 297 297 296 294 292 292 293 293 292 292 293 294 294 292 291 290 290 291 292 292 291 290 291 291 291 291 291 290 290 290 289 288 288 287 288 288 288 288 289 289 290 290 289 289 289 289 288 288 288 288 288 289 290 292 293 295 296 297 297 297 298 298 299 299 299
305 305 305 305 305 305 305 305 305 305 305 305 305 305 305 304 302 300 299 298 298 298 297 295 293 292 292 292 292 291 292 292 293 293 292 291 290 289 290 290 290 290 290 290 290 291 291 290 290 289 288 288 287 287 287 288 288 288 289 289 290 289 289 289 289 289 288 288 288 288 288 288 289 291 292 294 296 297 297 297 298 298 298 299 299 299
304 304 304 304 305 305 305 305 305 305 305 305 305 305 305 305 303 300 297 298 299 299 298 296 295 293 292 291 291 291 291 292 292 292 292 291 290 289 289 289 290 290 289 289 289 290 290 290 289 288 288 287 287 287 287 288 288 288 289 289 290 290 289 289 289 289 288 288 288 288 288 289 290 292 293 295 296 297 297 297 298 298 299 299 299 300
303 303 303 303 304 304 304 304 304 304 304 304 304 304 304 305 303 301 299 299 299 298 297 296 295 294 292 291 291 291 292 292 292 292 292 291 289 288 289 289 290 290 290 289 289 289 289 289 289 288 287 287 287 287 287 288 288 288 289 289 289 289 289 289 288 288 288 288 288 288 288 289 291 293 294 296 296 297 297 298 298 298 299 299 299 300
303 302 302 303 303 303 303 303 303 303 303 303 303 303 303 304 304 304 302 301 300 298 296 295 294 293 292 292 292 292 292 292 292 293 293 292 290 288 289 290 290 290 291 291 290 289 289 289 289 288 288 287 287 287 287 287 288 288 289 289 289 289 289 288 288 288 288 288 288 288 289 290 292 294 295 296 297 297 297 298 298 299 299 299 299 300
302 302 302 302 302 303 303 302 302 302 302 302 302 302 302 303 304 304 303 302 301 299 297 295 294 293 293 293 293 293 293 292 293 294 295 293 290 289 290 290 290 291 292 293 292 291 290 289 289 288 288 288 288 287 287 287 288 288 289 289 289 289 288 288 288 288 287 288 288 289 290 292 293 295 296 297 297 297 297 298 298 299 299 299 300 300
302 303 303 302 302 302 302 302 301 301 301 301 301 302 302 302 303 303 303 302 302 301 299 297 295 294 294 295 296 295 294 293 294 295 296 294 292 290 291 290 290 291 293 293 294 294 292 290 289 289 289 289 288 288 287 287 288 288 289 289 289 288 288 288 288 287 287 288 289 290 291 293 294 296 297 297 297 297 297 298 299 299 299 299 299 300
302 303 302 302 302 302 302 302 301 301 301 301 301 301 302 302 302 302 303 303 303 303 302 300 297 296 295 296 297 296 295 295 295 296 297 296 293 291 291 291 291 291 292 293 293 293 292 290 289 289 289 289 289 288 288 288 288 288 289 289 288 288 288 288 288 287 288 288 290 291 293 294 295 296 297 297 297 297 297 298 298 299 299 299 299 299
302 302 302 302 302 301 301 301 301 301 301 301 301 301 301 301 301 302 302 302 302 302 303 303 301 299 297 297 296 296 296 296 296 296 296 296 295 293 291 291 291 291 292 292 292 291 290 289 289 289 289 289 289 289 288 288 288 288 288 288 288 288 288 288 287 287 288 289 291 292 294 295 296 297 297 297 297 297 297 298 298 298 298 298 298 299
302 302 302 302 301 301 301 300 300 301 301 301 300 300 300 300 301 301 301 301 301 301 302 302 302 302 300 298 297 296 296 296 296 296 296 296 296 294 292 291 291 292 292 292 292 291 289 288 288 289 289 289 289 289 288 288 288 288 288 288 288 288 288 287 287 288 289 290 292 293 294 296 296 297 297 297 297 297 297 298 298 298 298 297 298 298
302 302 301 301 301 301 300 300 300 300 300 300 300 300 300 300 300 300 300 300 300 300 300 301 301 301 301 301 301 300 299 299 297 296 296 296 297 296 293 292 292 292 292 292 291 290 288 287 288 288 289 289 288 288 288 288 288 288 288 288 288 288 287 287 288 288 289 291 293 294 295 296 296 297 297 297 297 297 297 297 298 298 298 297 297 298
302 301 301 301 301 300 300 299 299 299 299 299 299 299 299 299 299 299 299 300 300 300 300 300 300 300 300 301 301 301 301 300 299 297 296 296 296 296 295 293 293 293 293 292 291 290 289 289 289 289 289 288 288 288 287 287 288 288 288 288 288 287 287 287 288 289 291 292 294 295 296 296 296 296 297 297 297 297 297 298 298 298 298 298 298 298
301 301 300 300 300 300 299 299 298 298 299 299 299 299 299 299 299 299 299 299 299 299 299 299 299 299 299 299 300 300 300 299 299 298 296 296 295 296 296 294 293 293 294 294 293 292 291 291 290 289 288 287 288 288 287 287 288 288 288 288 287 287 287 288 289 290 292 293 294 295 296 296 296 296 297 297 297 298 298 298 298 298 298 298 298 298
301 300 300 299 299 299 299 298 298 298 298 298 298 298 298 298 298 298 298 298 298 298 298 298 298 298 298 298 298 298 298 298 298 297 297 296 295 295 296 295 293 293 293 294 294 294 293 292 291 290 288 287 287 287 287 288 288 288 288 288 287 287 288 288 289 291 293 294 295 295 296 296 296 297 297 298 298 299 299 299 299 299 299 299 299 299
300 300 300 299 299 299 299 298 298 298 298 298 298 298 298 298 298 297 297 297 297 297 297 297 297 298 297 297 297 297 297 297 297 297 296 295 295 295 295 295 295 294 293 294 294 294 293 293 292 290 289 288 287 287 288 288 288 288 288 288 288 288 288 289 290 292 293 294 295 296 296 296 296 297 297 298 299 299 299 298 298 299 299 300 300 300
301 300 299 299 299 299 298 299 298 298 298 298 297 297 297 297 297 297 296 296 296 296 296 297 297 297 297 296 296 296 296 296 295 295 295 295 294 294 294 295 295 295 294 294 294 294 293 292 291 290 289 288 288 288 288 288 288 288 288 288 288 288 289 290 291 293 294 295 295 296 296 296 297 297 297 298 298 298 298 297 297 297 298 299 299 299
300 300 299 299 299 298 298 298 298 297 297 297 297 297 297 297 297 296 296 296 295 295 295 296 296 296 295 294 294 295 295 294 294 294 294 294 293 293 294 294 295 295 295 294 293 293 293 292 291 290 289 289 288 288 287 288 288 288 288 288 289 289 290 291 292 293 294 295 295 296 296 296 296 297 297 297 297 297 297 297 296 297 297 297 298 298
300 300 299 299 299 298 298 297 297 297 296 296 296 296 296 296 296 296 296 295 295 294 295 295 295 295 294 292 292 292 292 292 292 292 292 292 292 293 293 294 295 295 295 294 293 292 292 292 291 290 290 289 289 288 287 287 288 288 288 289 289 290 291 291 293 294 294 295 295 296 296 296 296 297 297 297 296 296 296 296 296 297 297 297 297 297
301 300 299 299 298 298 297 297 296 296 295 295 295 295 295 295 295 296 295 295 294 294 294 294 294 294 292 290 290 290 290 290 290 291 291 291 292 292 293 294 294 294 294 294 294 293 292 291 290 290 290 289 289 288 288 288 288 288 288 289 290 290 291 292 293 294 294 295 295 296 296 296 296 296 297 297 296 296 296 296 297 297 297 297 297 297
301 300 299 298 297 296 296 295 295 295 295 295 295 295 294 294 295 295 295 295 294 293 293 294 293 292 290 289 288 289 289 289 289 290 290 291 291 292 293 293 293 293 293 294 294 294 292 291 290 289 289 289 289 288 288 288 288 288 288 288 289 290 291 292 293 294 295 295 295 296 296 296 296 296 296 296 296 296 296 296 296 296 296 297 297 297
300 299 298 297 296 295 295 295 294 294 294 294 294 294 294 294 294 294 295 294 294 293 293 293 293 291 289 288 288 288 288 288 289 290 290 290 291 291 292 292 292 291 292 293 293 294 294 292 291 289 289 288 288 288 288 288 288 288 288 288 289 290 291 292 293 294 295 295 295 296 296 296 297 296 296 296 296 295 296 296 296 296 296 296 296 296
299 298 297 296 295 294 294 294 293 293 293 293 293 293 293 293 293 294 294 294 293 293 292 292 292 291 289 288 288 288 288 288 288 289 289 290 290 290 290 290 290 291 291 292 292 292 292 292 291 290 289 288 287 287 287 288 288 288 288 289 290 291 292 293 294 294 295 295 296 296 296 296 296 296 296 296 295 295 295 295 295 295 295 295 296 296
298 297 296 295 294 294 293 293 292 292 292 292 292 292 292 293 293 293 293 293 293 292 292 291 291 290 288 288 288 288 288 288 288 288 288 289 289 289 289 289 289 290 290 291 291 290 290 290 290 290 290 289 288 287 287 288 288 289 289 290 291 292 292 293 294 294 295 295 296 296 296 296 296 296 295 295 295 295 295 295 295 295 295 295 295 296
297 296 296 295 294 293 292 292 292 292 291 291 291 291 291 292 292 292 292 292 292 292 291 291 290 289 288 288 288 288 288 288 287 288 288 288 288 288 288 288 289 289 289 289 288 288 288 288 288 288 289 289 288 288 288 288 289 289 290 291 292 292 293 293 294 294 295 295 296 296 296 297 296 296 295 295 295 295 295 295 295 295 295 295 295 295
296 296 295 294 294 293 292 292 291 291 291 291 290 290 290 291 291 291 292 292 292 291 291 290 290 289 288 288 288 288 288 287 287 287 287 288 288 288 288 288 288 288 287 287 287 287 287 287 287 287 288 288 288 288 288 289 290 290 291 291 292 292 293 293 294 295 295 295 296 296 296 296 296 296 295 295 295 295 295 295 295 295 295 295 295 295
295 295 294 294 293 293 292 292 291 291 291 290 290 290 290 290 290 291 291 291 291 291 290 290 290 289 288 288 288 288 288 287 287 287 287 287 288 288 288 288 288 288 288 288 288 288 288 288 287 287 287 287 288 288 288 289 290 290 291 291 292 293 293 294 294 295 295 295 296 296 296 296 296 295 295 295 295 295 295 295 295 295 295 295 295 295
Wind_Speed
10 10 11 12 12 12 12 11 11 12 12 11 11 12 14 15 16 17 18 18 17 17 17 18 21 24 28 31 31 27 23 21 21 24 29 33 37 40 40 39 38 38 37 36 36 36 36 37 37 36 35 34 34 32 30 29 27 26 25 22 20 17 14 12 10 9 8 7 7 6 5 5 5 6 7 8 8 8 8 8 8 7 7 8 8 9
10 9 9 11 12 13 14 13 13 14 14 13 13 12 12 13 13 14 15 15 15 15 15 15 17 20 26 29 30 27 22 20 20 23 28 32 36 38 39 39 38 38 38 38 38 37 37 38 38 37 36 35 33 31 30 29 28 26 24 21 18 15 13 11 10 9 8 7 6 5 4 5 5 6 7 8 8 8 7 7 7 6 7 7 8 9
11 10 9 9 10 12 13 14 15 15 16 15 15 14 14 14 15 15 15 15 15 14 13 13 13 15 18 22 24 24 23 23 23 25 27 30 32 34 35 36 36 37 39 40 40 39 38 38 38 37 36 34 32 31 30 29 27 25 22 18 15 13 12 11 10 10 8 7 5 4 4 5 6 7 7 7 7 7 7 6 6 6 6 7 8 9
14 13 12 10 10 11 12 13 15 16 17 17 17 16 16 17 17 17 16 16 15 14 13 12 12 11 12 14 17 19 22 25 27 28 28 29 30 31 32 33 35 37 39 40 40 39 39 39 38 37 35 33 32 31 30 28 26 22 19 15 13 12 11 11 10 9 7 6 4 3 4 5 6 7 7 7 6 6 6 5 5 5 6 7 8 9
15 14 13 13 13 12 12 13 14 16 18 19 19 19 19 19 19 18 17 17 16 15 14 13 12 11 11 12 14 17 20 24 27 29 30 30 31 31 32 34 36 39 40 41 41 40 39 38 37 35 34 33 32 31 29 26 22 18 15 13 12 11 10 10 8 7 6 4 3 4 5 6 6 6 6 6 5 5 5 5 5 5 6 7 8 9
15 14 14 14 14 14 13 14 15 17 19 21 22 22 22 21 20 20 19 19 19 18 17 16 15 15 15 15 16 18 20 23 26 28 30 32 33 34 36 38 40 41 41 40 39 38 37 36 36 35 34 33 31 29 25 21 17 14 12 12 11 10 10 8 7 6 5 4 4 4 6 6 6 6 5 5 4 4 4 5 5 6 6 7 8 9
13 14 14 15 15 14 14 15 16 18 20 22 24 24 24 23 22 22 22 22 21 21 21 21 21 21 21 22 22 23 24 25 27 29 31 33 36 38 40 41 41 40 39 38 36 36 35 35 35 34 33 30 27 23 20 16 14 13 12 12 11 10 9 8 7 6 5 4 5 5 6 6 5 5 4 4 3 4 4 5 6 6 7 7 8 9
12 14 15 15 14 14 14 15 15 17 19 22 24 25 25 25 25 24 24 23 23 24 24 25 26 27 27 28 28 29 30 31 31 33 34 36 38 39 40 39 37 36 35 34 34 35 35 34 33 31 28 25 22 19 16 14 13 12 12 11 10 10 9 8 7 6 5 5 6 6 6 5 4 4 3 3 3 4 4 5 6 6 7 7 8 9
13 14 14 14 14 14 13 13 14 14 16 19 22 23 24 24 25 25 25 25 25 25 26 27 28 29 30 30 31 32 33 33 33 34 34 36 37 38 37 35 34 32 32 33 34 34 33 31 29 26 23 20 18 16 15 14 13 12 12 11 10 9 9 8 7 6 6 6 6 6 5 4 3 2 2 2 3 4 5 5 6 6 7 7 8 9
14 14 14 13 14 14 14 13 13 13 15 18 20 22 22 22 23 23 24 24 25 26 27 28 28 28 29 30 31 32 32 32 32 32 33 35 36 36 36 35 34 33 33 33 32 31 29 27 24 22 20 18 17 16 15 14 13 13 12 11 11 10 9 9 8 7 7 7 6 5 4 3 2 1 1 2 3 4 5 5 6 6 7 7 8 9
12 13 12 12 13 14 14 13 13 14 16 19 20 21 21 20 20 20 19 20 22 24 26 27 27 27 28 29 30 31 32 31 31 31 31 33 34 35 35 35 34 34 32 31 30 28 26 24 22 20 19 17 16 15 15 14 14 13 13 12 11 11 10 9 8 8 7 7 6 4 3 3 2 1 1 2 3 4 5 5 6 6 7 7 8 9
10 10 10 9 10 12 13 13 13 14 16 18 17 16 15 16 18 19 19 18 19 22 24 25 26 26 26 27 28 30 31 32 31 31 31 32 34 35 35 35 34 32 31 30 28 26 24 22 21 19 18 17 16 15 15 14 14 13 13 12 12 11 10 9 9 8 7 6 5 4 3 3 2 0 1 2 3 4 4 5 5 6 7 8 9 10
10 9 10 11 12 12 11 11 11 12 13 13 12 10 10 13 17 20 20 19 20 22 24 25 25 24 24 26 27 29 31 31 31 31 30 30 31 33 34 34 33 31 30 29 28 26 24 22 21 19 18 18 17 16 15 14 14 13 12 12 11 10 10 9 9 8 7 5 5 4 4 3 2 0 1 2 3 4 4 5 5 6 7 8 10 11
10 11 11 12 12 12 12 12 11 10 10 10 9 10 11 15 19 22 22 20 20 22 25 26 25 23 23 24 25 28 30 30 30 29 28 27 28 30 32 33 32 30 29 29 27 25 24 22 21 20 19 18 17 16 15 14 13 12 11 11 11 10 10 9 8 7 6 6 5 5 4 3 1 0 1 2 3 3 4 5 6 7 8 9 10 11
9 9 8 7 7 10 12 12 11 10 10 10 11 13 16 18 21 22 21 19 19 22 24 25 24 23 21 21 22 25 28 30 30 29 27 26 26 28 30 31 30 29 28 28 26 24 23 22 21 20 18 18 17 16 15 14 13 12 11 11 11 10 10 9 8 7 6 6 6 5 4 2 1 1 2 2 3 3 4 5 6 7 8 9 10 11
9 8 6 5 6 9 11 11 11 11 11 12 13 15 17 16 17 19 19 18 19 21 21 19 17 15 15 17 20 22 25 28 29 29 28 25 24 26 28 29 29 27 26 26 25 24 22 20 20 19 18 17 16 15 14 13 13 12 12 12 11 11 10 9 8 7 7 6 6 4 3 1 0 1 2 2 3 3 4 5 6 8 9 10 10 11
9 9 7 7 7 9 11 11 11 12 12 12 14 15 15 14 15 17 18 18 17 16 16 16 10 5 7 11 15 18 21 23 25 27 28 25 23 23 25 27 27 27 26 25 24 23 21 20 19 18 17 16 15 14 13 13 13 13 12 12 11 11 10 9 8 8 7 6 5 4 2 1 0 1 2 2 3 4 5 6 7 8 9 10 10 11
9 9 8 8 8 8 9 10 10 10 11 12 13 13 14 14 15 16 15 14 13 12 11 12 9 6 5 6 8 11 19 21 23 25 26 23 21 21 22 24 26 26 25 24 23 21 20 19 19 18 17 16 15 14 13 13 13 12 12 11 11 10 9 9 8 8 7 6 5 3 2 0 0 1 1 2 3 4 5 6 7 8 9 10 10 10
8 8 8 8 8 8 9 10 10 10 11 12 13 14 14 15 15 14 12 11 10 9 8 7 8 9 9 9 11 14 18 21 23 23 22 21 19 19 20 23 24 25 25 24 22 20 19 19 18 17 17 16 15 14 13 12 12 11 11 10 10 10 9 9 9 8 7 5 4 2 1 0 0 1 1 2 3 4 5 7 8 8 9 9 10 10
7 7 8 8 9 9 9 9 9 9 11 12 14 15 15 14 13 12 10 10 9 10 10 10 9 9 10 12 14 16 18 21 22 22 21 20 19 19 19 21 23 25 25 23 21 20 19 19 18 17 16 15 14 13 12 11 11 10 10 10 9 9 9 9 8 7 6 5 3 2 1 0 1 1 2 2 3 5 6 7 8 8 9 9 10 10
5 5 4 4 5 7 7 8 8 9 11 14 15 16 15 13 12 11 10 11 12 12 13 12 11 11 13 15 16 16 18 20 19 17 16 17 18 18 19 20 22 23 24 22 20 19 18 18 17 16 15 14 13 12 11 10 10 9 9 9 9 9 9 9 8 7 6 4 3 2 1 0 1 1 2 3 4 5 6 7 7 8 8 9 9 9
3 3 2 2 4 6 7 8 9 9 11 14 16 16 14 12 11 11 11 13 14 15 15 14 14 15 17 17 16 16 17 19 18 16 14 12 14 17 18 20 22 23 22 21 19 18 17 17 16 15 14 12 11 11 10 10 9 9 9 9 9 9 9 8 8 6 5 4 2 1 1 1 1 1 2 3 4 5 6 7 7 8 8 9 9 9
5 2 1 1 3 4 6 8 9 10 11 14 16 17 17 15 13 13 13 15 17 18 18 19 19 19 18 17 15 15 16 18 18 17 13 9 10 14 18 20 21 22 21 20 18 17 17 16 15 14 12 11 10 10 9 9 9 8 9 9 9 9 9 8 7 6 4 3 2 1 1 1 1 1 2 4 5 5 6 6 7 7 8 8 9 8
7 4 2 0 1 3 5 7 9 11 13 15 17 18 19 18 16 14 15 16 19 20 21 20 19 18 16 14 13 13 14 15 15 13 11 9 10 15 18 21 21 21 20 19 18 17 17 16 15 13 12 10 9 8 8 8 8 8 9 9 9 9 9 8 6 5 4 3 2 1 1 1 1 1 3 4 5 5 5 6 6 7 8 8 8 7
8 6 4 2 0 1 3 5 7 10 13 15 18 19 19 18 16 14 14 15 17 19 20 19 16 13 12 11 10 9 10 11 11 11 11 10 12 16 18 21 21 21 20 19 18 17 17 16 15 14 12 10 9 8 8 8 8 8 9 9 9 9 8 7 6 5 4 3 2 2 1 1 1 2 3 4 5 5 5 5 6 6 7 7 7 6
9 7 5 3 2 0 1 3 5 8 10 14 17 20 20 19 17 16 15 16 17 19 19 15 11 8 8 8 7 6 5 6 8 11 13 12 13 15 17 20 21 21 20 19 18 17 16 16 15 13 12 10 9 8 8 7 8 8 9 9 9 8 7 6 5 4 3 3 2 2 1 1 1 2 4 4 5 5 5 5 5 6 6 6 6 5
10 8 6 5 3 2 1 2 4 6 9 12 16 19 21 21 19 18 17 18 19 20 17 11 7 5 6 6 5 4 3 4 7 12 16 16 14 13 15 19 21 21 20 19 17 16 15 15 13 12 10 9 9 8 8 7 8 8 8 8 8 8 7 6 5 4 3 2 2 2 1 0 2 3 4 4 4 4 4 4 5 5 6 6 5 4
10 9 7 6 4 3 2 2 3 6 9 12 15 18 20 21 20 19 18 20 21 20 17 12 7 4 4 4 4 4 5 6 9 13 17 17 13 12 16 19 21 21 20 17 15 14 14 13 12 10 8 8 8 8 7 7 7 7 8 8 7 7 6 5 4 3 3 2 2 1 0 1 2 3 4 4 4 4 4 4 4 5 5 5 4 4
10 9 8 7 5 4 3 2 3 6 8 11 14 16 19 20 21 21 21 23 23 20 15 13 11 8 7 7 7 6 6 7 10 14 17 15 12 12 17 19 20 20 19 16 12 10 9 10 9 8 7 7 7 7 7 7 7 7 8 7 7 6 5 4 3 2 2 2 1 1 0 1 2 3 4 4 4 4 3 3 4 5 5 5 4 5
8 8 7 6 5 4 4 3 4 5 8 10 13 15 17 19 20 22 24 24 23 20 15 13 12 11 11 10 7 5 5 8 11 14 16 13 12 13 18 18 19 20 18 13 7 4 4 6 7 7 7 7 7 8 7 7 7 8 8 7 7 5 4 3 2 2 2 1 1 0 1 2 3 4 4 4 4 3 3 3 4 5 5 5 6 6
6 6 6 5 4 4 4 4 5 6 8 9 11 14 15 17 19 20 22 23 23 21 18 16 14 14 13 8 4 2 3 10 14 14 14 13 14 16 19 18 18 19 17 11 5 2 2 4 7 8 7 7 7 8 8 8 8 8 8 7 6 5 4 3 2 2 1 1 1 1 1 2 3 4 4 4 3 3 3 3 4 4 5 6 8 9
5 4 4 4 4 4 4 5 6 7 8 9 10 12 13 15 16 18 19 21 21 21 20 19 18 16 15 10 5 3 5 14 17 17 15 15 17 20 22 19 18 17 16 12 8 5 3 4 7 9 9 8 8 8 8 8 8 8 7 6 5 4 3 2 2 1 1 1 1 1 1 2 3 4 4 3 2 2 3 4 4 4 5 8 10 11
3 3 3 3 3 4 5 5 6 6 7 7 9 10 11 13 14 15 17 18 19 19 19 20 20 18 16 13 9 7 9 16 20 20 19 17 18 20 21 21 19 17 15 11 9 7 5 6 7 8 9 10 9 8 8 8 8 7 7 6 5 4 3 2 2 1 1 1 1 1 1 2 3 3 3 2 1 2 3 4 5 5 6 8 11 12
2 3 4 4 4 5 6 6 6 6 6 6 7 8 10 11 13 14 16 16 17 17 17 18 19 20 19 15 11 10 11 17 22 23 22 20 18 20 23 21 20 18 15 10 7 6 5 7 8 8 9 11 11 9 8 8 8 7 6 5 4 4 3 2 2 2 2 1 1 1 1 2 2 2 2 1 1 3 4 5 5 6 8 9 11 13
3 4 4 5 6 6 7 7 8 8 8 7 7 8 9 10 12 14 15 16 16 16 16 16 17 18 19 18 16 14 14 18 22 25 24 22 21 21 23 22 22 20 16 12 8 6 5 8 11 11 11 10 10 9 9 8 8 7 7 6 5 4 4 3 2 2 3 2 2 1 1 1 1 1 1 1 2 3 5 5 6 7 9 11 12 13
5 6 6 7 7 8 9 9 9 9 9 8 8 8 9 10 11 13 14 15 16 16 16 15 15 16 16 17 17 17 17 18 21 24 26 24 23 22 22 22 24 23 18 14 11 9 8 9 11 13 12 9 7 7 8 9 8 7 7 6 5 5 4 3 3 3 4 4 3 2 1 1 1 1 1 2 4 4 5 6 7 8 10 12 13 14
6 7 8 8 9 9 10 10 10 10 10 10 9 9 9 10 11 12 13 15 15 16 16 15 15 15 15 15 14 14 14 15 18 22 25 25 24 22 22 23 24 24 20 16 14 13 13 11 11 11 11 8 6 6 8 10 10 8 7 6 6 5 5 4 4 5 5 5 4 3 2 2 2 2 3 4 5 5 6 7 8 9 11 12 13 14
8 9 9 9 10 10 11 11 11 11 11 10 10 10 10 10 11 11 12 13 14 15 15 15 15 14 14 14 13 11 11 12 15 19 23 25 24 22 23 23 24 24 21 18 16 16 15 13 10 8 7 6 7 9 12 12 11 10 8 7 6 6 5 5 6 6 6 6 5 4 3 3 3 4 5 5 6 6 7 8 9 10 11 12 13 13
9 9 9 9 10 11 11 11 11 11 11 11 10 10 10 10 10 11 12 12 13 13 14 14 14 13 13 12 11 10 9 10 12 16 21 24 23 22 21 22 24 24 22 18 16 16 16 14 11 9 8 8 10 12 14 14 13 11 9 8 6 5 6 6 7 7 7 6 6 5 5 5 5 5 6 6 6 7 9 10 10 11 12 12 13 13
9 9 9 10 11 11 11 12 12 11 11 11 11 10 10 11 11 11 11 12 12 12 12 13 12 12 11 11 10 9 8 9 11 14 19 22 23 21 20 21 23 24 23 18 14 14 15 13 12 12 13 13 13 14 15 15 13 12 10 7 5 5 7 8 8 8 7 6 6 6 6 6 6 6 6 7 7 9 10 12 13 13 13 13 14 15
10 10 10 11 12 12 12 12 11 11 11 11 11 11 11 11 12 12 12 11 11 11 12 12 11 11 10 9 8 8 8 9 11 14 18 21 23 21 19 19 21 23 23 19 15 14 15 13 13 13 14 16 17 17 17 16 14 12 10 8 7 8 9 9 9 9 8 7 7 7 7 7 7 7 8 8 9 11 12 14 15 15 14 14 15 17
10 11 12 12 13 13 12 12 12 12 12 11 12 12 12 12 12 13 12 12 11 11 11 11 10 10 9 8 8 8 8 9 11 14 18 21 22 20 18 17 18 21 22 20 16 15 14 14 15 15 16 17 17 16 16 16 15 13 11 10 10 11 10 10 10 10 9 9 8 8 8 8 9 10 10 11 12 13 14 16 16 16 16 16 16 17
11 12 13 13 13 13 13 12 12 12 12 12 12 13 12 12 13 13 13 13 13 12 12 11 11 11 11 11 10 9 9 9 11 14 16 19 19 18 16 14 15 18 21 20 18 16 14 14 15 16 18 19 19 17 16 17 15 13 12 12 12 10 8 10 11 11 10 10 9 9 10 10 11 11 12 13 14 15 16 16 16 16 16 17 17 17
13 13 13 13 13 13 13 13 13 13 13 13 13 13 13 13 13 13 13 13 14 14 13 13 12 12 12 12 12 11 10 10 10 12 14 16 16 15 13 12 13 16 20 20 19 17 16 15 15 17 18 19 19 19 18 18 16 14 13 12 11 10 9 12 13 13 12 11 11 11 11 12 12 13 13 14 15 16 17 17 17 17 16 16 16 16
13 13 13 13 13 13 13 13 14 14 14 14 14 14 14 14 13 13 14 14 15 15 14 14 13 12 12 13 13 13 12 11 11 11 12 13 13 12 11 11 12 15 18 19 18 18 18 18 18 18 19 19 19 19 19 18 17 15 13 12 11 11 13 15 16 14 13 13 12 12 12 13 13 15 16 16 17 18 18 18 18 18 17 17 17 17
13 13 13 13 13 13 14 14 15 15 15 15 15 15 15 15 14 14 14 15 15 16 15 14 13 12 12 12 13 14 14 13 12 12 12 12 11 11 10 11 13 15 16 16 16 15 16 19 21 21 20 19 18 18 19 18 17 15 13 12 12 13 15 16 15 15 14 14 14 14 14 14 14 16 17 18 19 19 20 19 19 19 19 18 18 17
13 13 14 14 14 14 14 15 15 15 16 16 16 16 16 16 16 15 15 16 16 16 15 14 13 13 13 14 14 15 15 15 14 13 12 11 11 11 11 12 13 14 15 14 13 13 14 16 19 21 22 19 17 15 16 17 16 15 14 14 14 15 16 16 16 15 14 14 14 14 15 15 16 18 18 19 19 19 20 20 20 20 20 19 19 18
13 13 14 14 14 15 15 15 16 16 16 16 16 16 16 16 16 16 17 17 16 16 15 13 13 13 13 14 15 15 16 16 16 15 14 13 13 13 13 14 14 14 14 13 13 14 15 16 17 18 20 19 17 16 16 16 16 15 15 16 16 17 18 17 16 15 15 14 15 15 15 16 17 18 18 18 18 18 19 20 20 20 20 19 19 18
12 13 14 14 14 15 15 16 16 16 16 16 16 16 16 16 16 16 17 17 17 16 14 14 13 13 13 13 14 15 15 16 16 17 17 16 16 16 16 16 16 16 16 16 16 17 17 16 15 15 16 17 18 19 18 17 16 16 16 17 17 18 18 17 16 15 15 15 15 16 16 16 17 18 18 17 16 17 19 20 20 21 20 19 19 19
11 12 13 14 15 15 15 16 16 16 16 16 16 16 16 16 16 16 17 17 17 16 15 14 14 14 14 14 14 15 15 16 16 17 17 18 18 19 19 19 20 20 19 19 18 18 17 15 14 13 13 13 16 18 19 19 18 17 17 17 18 18 17 17 16 16 15 16 16 16 16 17 18 18 18 16 16 17 19 20 21 20 20 19 19 19
10 11 12 14 14 15 16 16 16 16 16 16 16 16 16 16 16 16 17 17 16 15 15 15 15 14 14 14 15 15 16 17 17 17 18 19 20 20 21 21 21 20 18 16 15 14 14 12 11 10 10 11 12 15 17 19 19 18 17 17 17 18 17 17 16 16 16 16 16 17 17 17 17 17 16 15 15 16 18 20 20 20 19 19 19 19
Wind_Direction
84 105 124 135 142 148 156 170 169 161 156 160 167 175 183 187 191 196 202 204 205 204 204 205 205 203 199 197 199 201 199 196 195 193 188 180 176 176 180 184 187 189 192 195 197 197 193 187 184 181 176 171 167 165 164 165 167 170 171 172 174 177 181 186 192 199 205 207 209 213 222 235 248 258 264 270 275 281 290 298 306 316 326 331 331 328
81 100 116 130 138 143 149 164 169 163 154 155 159 164 168 167 169 173 180 186 190 190 189 190 193 194 194 195 198 200 195 189 185 183 180 177 175 177 181 185 188 190 192 195 195 193 187 180 174 170 168 166 164 164 165 168 171 172 173 174 177 181 186 190 193 196 198 199 201 208 223 244 257 264 269 275 282 289 296 304 314 324 332 332 328 326
65 75 84 105 122 132 138 150 158 159 156 152 153 155 155 152 150 152 156 162 168 171 170 167 168 173 181 188 194 195 190 183 179 178 178 178 179 180 183 186 187 187 188 189 187 182 174 168 164 163 163 163 163 165 168 171 172 172 173 175 179 184 187 189 190 191 191 191 196 211 238 256 264 269 273 280 287 294 302 310 321 330 333 330 326 324
55 59 66 80 96 110 122 133 141 146 148 147 146 147 146 141 137 137 142 148 153 157 159 159 158 158 164 177 187 190 188 182 179 179 180 182 183 184 184 184 182 179 177 176 172 167 161 159 158 159 161 162 165 168 170 171 170 170 171 175 179 182 184 185 186 185 185 188 200 228 253 262 266 270 276 284 291 299 307 315 325 330 330 326 323 323
49 57 68 77 82 88 102 115 125 132 135 136 135 135 133 129 126 127 131 137 140 142 146 151 155 157 159 167 179 186 187 184 182 181 181 182 182 180 177 173 169 165 163 160 158 155 154 155 157 158 159 162 165 167 167 166 165 165 167 170 173 174 176 177 178 178 180 189 212 241 256 261 264 271 279 287 295 304 312 319 325 326 325 323 322 323
50 62 77 83 84 85 93 101 111 118 122 123 123 123 122 121 119 118 117 120 123 125 128 133 138 142 146 150 158 167 173 176 177 178 176 174 171 167 162 157 154 152 151 150 150 150 152 155 157 158 158 160 161 161 160 158 157 157 159 162 164 165 167 169 171 175 183 198 223 243 250 256 262 270 279 288 299 310 317 322 323 322 321 321 322 325
56 68 81 86 90 93 95 97 103 110 113 112 113 114 114 114 113 111 109 110 112 114 115 118 121 125 129 133 138 142 145 149 154 158 159 158 157 153 150 148 146 146 146 147 148 151 154 156 156 156 156 155 154 152 150 148 147 149 152 156 159 162 164 167 171 178 191 209 227 238 244 251 260 268 277 289 303 316 321 321 320 318 318 320 324 328
55 64 75 78 83 90 93 95 99 105 110 110 108 107 107 107 107 107 107 107 108 109 110 110 112 114 118 123 127 130 130 131 133 136 139 142 144 145 145 145 145 146 147 148 150 152 153 154 153 152 151 149 147 144 141 141 143 147 152 157 162 164 167 170 176 185 199 215 226 231 237 244 254 263 275 291 309 318 320 319 317 315 316 320 326 330
55 55 63 69 73 76 79 84 91 99 107 110 110 109 107 105 105 105 106 104 105 108 110 109 108 109 113 118 122 124 125 125 126 127 130 132 135 138 141 144 146 149 150 151 151 151 150 150 149 147 146 144 142 140 140 142 146 151 157 163 166 168 169 173 180 191 205 216 223 225 228 235 243 253 270 296 312 318 318 317 315 314 315 321 327 332
63 57 57 65 73 76 72 71 79 94 105 110 113 114 114 110 107 104 101 99 102 108 111 111 110 109 111 115 119 120 121 122 123 125 126 128 131 133 137 140 142 145 148 149 148 148 147 146 145 143 143 142 142 143 145 148 153 158 164 167 169 169 171 176 185 196 206 214 216 215 211 212 216 232 269 303 314 317 317 315 314 314 317 323 330 334
59 59 57 60 69 76 76 76 83 95 106 110 110 110 112 112 111 107 100 97 100 105 108 110 111 112 113 114 116 119 119 118 118 119 122 125 128 130 132 134 136 139 141 143 144 145 145 144 143 143 143 144 145 147 150 153 158 164 167 168 169 169 173 179 188 197 203 207 206 198 185 178 178 199 284 311 316 317 316 314 314 316 321 327 333 336
48 49 50 52 59 66 72 80 91 99 103 103 100 97 95 103 111 113 108 104 103 104 106 108 110 113 115 116 118 119 120 118 117 116 117 120 124 127 128 129 130 131 134 137 139 142 143 144 145 145 145 146 148 150 153 158 162 165 167 168 169 171 176 183 189 194 196 195 188 174 159 152 151 171 304 314 317 317 316 314 315 320 325 332 336 337
49 53 54 55 55 56 62 70 80 85 85 84 85 89 92 103 112 114 111 108 108 109 110 109 109 111 116 119 121 122 122 120 119 117 116 116 119 123 126 126 127 128 131 132 134 137 142 144 146 146 147 147 148 151 155 159 162 165 167 169 172 177 183 187 188 188 184 177 165 153 143 137 136 172 312 315 317 316 315 316 318 324 330 336 338 337
53 58 58 53 49 47 49 55 60 61 60 66 79 98 112 118 119 117 113 109 109 113 114 111 109 109 114 118 122 125 125 123 121 119 117 116 118 123 126 126 127 129 131 130 131 134 141 144 145 146 147 148 149 151 155 159 162 165 169 173 179 184 188 188 186 179 171 161 151 142 134 131 128 309 312 317 318 316 315 317 322 329 335 339 339 337
53 56 53 46 39 37 40 47 52 56 64 78 96 111 119 121 121 119 115 112 113 115 113 109 106 106 109 115 121 126 127 127 124 120 117 116 120 124 127 127 127 129 131 130 130 134 141 145 145 145 147 147 149 151 154 158 162 167 172 178 183 186 187 185 180 171 160 150 143 136 130 127 125 315 316 319 317 315 317 320 327 335 340 341 340 337
61 61 56 49 41 40 44 53 59 66 77 93 108 115 117 117 119 121 121 121 122 120 115 110 102 98 101 113 122 127 128 128 126 123 119 118 120 126 129 128 128 128 130 130 131 135 140 143 144 145 146 147 149 152 155 159 163 169 174 178 180 181 181 179 172 162 151 143 137 132 127 125 95 318 320 318 316 316 318 326 334 341 344 342 339 335
68 68 67 60 52 50 56 67 77 84 91 101 110 116 118 120 122 123 124 126 128 128 126 126 122 103 99 108 118 126 129 129 127 124 121 119 121 127 132 131 128 127 130 130 132 134 137 139 141 143 145 147 151 154 156 160 164 168 171 173 174 174 172 169 162 153 145 138 134 131 127 125 342 323 321 318 314 317 323 332 342 346 345 341 337 333
71 75 75 69 63 63 70 80 88 96 104 106 109 114 118 121 122 123 123 125 128 131 132 132 132 134 134 128 128 131 131 131 128 123 119 117 121 129 134 133 130 128 128 128 130 132 134 135 137 140 144 148 152 155 158 162 165 167 167 167 166 164 162 158 152 146 140 136 133 130 130 125 321 320 318 313 314 320 331 341 347 347 344 339 334 331
78 84 84 81 80 82 86 93 100 107 112 113 115 114 113 116 118 119 118 119 121 124 124 118 120 125 129 129 136 138 135 134 129 122 114 111 116 126 131 130 128 125 124 124 125 128 130 132 135 138 143 148 153 156 160 163 164 164 162 160 158 156 153 150 145 141 137 135 133 132 135 143 311 311 311 311 318 328 340 348 350 347 341 336 332 329
89 93 95 99 99 97 95 103 116 126 130 133 130 124 116 115 114 110 106 106 108 110 110 105 101 102 112 120 130 137 136 134 127 118 109 106 111 120 126 126 122 119 117 119 122 125 128 131 133 137 141 146 151 156 159 161 162 160 158 155 152 150 147 145 141 138 136 134 134 137 147 200 291 300 305 313 325 337 347 352 350 344 338 334 330 327
97 100 110 127 126 118 110 122 135 146 150 150 142 132 123 119 111 102 100 103 103 103 101 94 91 98 114 118 125 133 135 132 124 114 108 104 106 114 123 124 121 116 114 115 120 124 128 130 133 135 138 143 149 154 157 159 159 157 154 151 148 146 144 141 139 137 135 135 139 147 166 217 273 293 305 319 333 344 352 353 349 342 336 333 329 327
79 106 121 169 165 151 144 145 149 157 163 161 150 139 133 127 115 106 108 109 107 103 99 96 102 113 120 122 129 136 137 134 128 120 111 102 102 111 123 125 121 116 112 115 120 125 128 129 130 132 135 142 148 153 156 158 158 155 151 148 145 143 141 139 138 137 138 141 148 161 185 229 265 290 310 328 341 349 354 353 347 341 336 333 329 327
35 49 65 208 201 181 165 157 155 160 166 165 159 153 152 148 136 124 119 118 115 112 110 111 116 121 123 124 130 137 140 138 133 125 113 105 109 119 126 128 123 117 114 119 124 127 129 129 128 129 133 140 148 153 156 157 155 152 149 145 143 141 140 138 138 139 143 148 158 175 200 228 260 296 321 336 345 350 353 351 347 342 338 335 331 329
29 24 17 349 206 193 181 170 165 166 168 169 167 165 164 161 154 144 135 130 124 119 116 116 115 114 115 118 123 130 136 139 137 130 116 111 120 128 131 131 125 118 119 124 129 131 131 130 129 130 132 137 145 153 154 153 150 148 145 143 142 141 139 140 141 144 149 157 169 189 209 225 266 311 332 340 345 349 351 350 347 344 342 339 335 332
30 28 27 24 17 203 198 190 184 180 178 176 173 170 167 164 157 147 138 132 127 123 119 115 106 98 100 108 112 117 132 139 139 131 117 116 122 128 133 133 128 123 123 129 135 137 134 132 132 134 135 137 141 147 149 148 146 144 143 142 141 140 140 142 144 149 156 167 182 196 205 223 289 328 337 340 343 345 348 349 349 348 347 344 340 338
34 31 30 32 38 66 194 200 198 195 190 186 180 175 170 165 157 146 135 131 131 129 125 115 102 93 98 101 96 98 125 138 140 135 127 124 123 126 133 136 132 127 126 131 137 139 137 135 136 139 141 141 141 142 143 144 144 143 143 142 141 141 141 143 148 155 165 177 188 196 200 241 321 334 335 337 339 341 345 349 352 352 352 349 347 348
42 39 38 42 49 61 101 171 190 196 197 194 190 185 180 172 159 145 136 138 142 140 133 125 116 107 104 94 80 79 113 131 136 135 134 129 124 124 132 135 134 129 126 129 136 141 140 139 139 141 141 142 142 141 139 141 143 143 143 143 142 142 143 147 153 162 173 182 186 187 189 302 329 332 333 333 334 337 342 351 357 359 358 357 358 9
52 49 46 48 52 62 85 140 178 191 195 196 195 193 189 180 165 150 146 150 151 147 140 140 140 133 118 104 97 100 114 125 132 135 136 129 121 121 133 136 134 130 125 125 131 139 143 142 141 140 140 139 137 135 135 136 138 140 141 141 142 143 145 150 157 169 178 182 179 171 174 330 331 330 329 329 331 333 342 354 4 8 7 8 16 38
61 59 58 59 60 67 82 124 165 184 191 193 193 194 194 189 178 167 162 160 155 149 143 144 145 143 139 132 122 114 117 128 138 141 140 127 117 123 135 137 137 134 129 124 123 131 141 146 147 144 140 137 133 130 129 131 134 136 138 139 140 142 145 151 162 173 181 177 164 141 356 334 329 326 325 325 327 332 343 0 14 19 20 23 35 55
68 73 77 77 76 77 89 118 149 170 182 186 187 189 193 196 192 183 174 167 159 152 143 142 142 140 137 130 118 109 126 148 151 149 145 130 123 131 140 142 143 142 137 129 119 116 143 161 162 158 148 140 133 129 127 129 132 135 136 137 138 140 144 152 165 176 179 164 140 85 355 336 328 324 322 321 325 335 351 11 24 31 34 39 48 60
77 89 99 101 96 92 99 119 139 155 168 178 183 186 192 198 199 193 182 174 168 161 151 145 144 144 142 135 125 125 161 169 165 161 160 143 140 147 150 151 152 151 147 141 131 124 154 179 182 178 164 150 138 131 128 128 130 132 134 134 135 138 146 156 169 177 166 142 109 48 356 338 328 322 318 317 325 344 7 23 33 40 45 48 54 60
83 100 110 113 114 115 120 131 143 156 168 180 187 191 194 199 201 199 191 185 180 174 165 157 155 155 157 157 156 162 172 175 173 174 180 161 153 157 160 160 161 160 155 151 145 140 141 165 184 187 178 164 148 137 131 127 126 128 130 131 135 143 157 168 174 172 151 125 95 44 359 340 330 322 316 315 330 3 27 35 40 45 49 51 55 58
94 114 122 128 135 142 146 151 158 167 179 191 197 200 200 201 202 201 198 195 194 191 184 174 168 166 168 171 172 175 178 179 180 182 186 176 164 161 166 166 166 165 162 157 149 140 135 147 166 178 180 173 160 145 136 129 127 127 129 133 143 157 172 182 181 164 146 133 110 61 4 342 332 322 315 316 345 31 45 47 48 51 53 51 52 55
125 141 149 156 161 164 166 169 174 181 190 200 207 209 208 206 204 202 199 199 201 203 202 195 186 178 175 175 178 182 185 188 187 187 188 186 174 166 170 170 170 168 166 160 150 137 126 137 145 153 165 169 163 150 141 134 131 133 136 142 154 169 180 188 182 168 156 148 135 91 10 349 336 325 318 330 30 57 61 58 57 58 58 53 50 50
166 167 169 172 174 175 177 180 184 188 194 200 207 213 215 213 209 205 202 201 202 204 208 209 205 198 191 186 185 187 190 193 192 191 191 193 185 175 172 174 174 171 167 162 152 136 120 133 140 143 146 155 155 150 146 140 138 141 146 155 166 177 184 186 181 171 164 158 150 122 44 5 344 334 348 39 66 73 73 70 68 66 64 59 53 49
181 179 183 184 183 182 182 184 188 192 196 199 205 211 215 215 213 211 208 206 205 205 206 208 210 211 210 209 207 205 205 202 197 195 195 198 194 185 176 177 178 175 170 164 154 141 130 133 138 139 137 135 139 148 152 151 149 150 154 165 176 183 186 185 178 170 164 161 153 139 116 105 108 103 82 78 81 84 84 81 78 74 71 66 61 57
186 183 186 190 190 187 186 188 191 194 197 199 204 209 212 214 214 213 212 211 210 209 209 209 210 211 214 220 225 228 227 217 206 200 198 200 199 193 183 181 181 180 175 168 156 146 138 136 136 135 132 126 128 145 153 155 155 156 160 173 182 184 181 178 173 168 164 161 155 144 134 131 124 112 102 94 94 97 98 92 87 82 78 74 70 66
192 188 189 193 194 194 192 192 193 196 199 200 202 206 209 211 212 213 213 213 214 214 213 213 213 214 215 219 226 234 238 228 215 207 202 200 200 198 191 184 182 182 183 178 167 156 147 144 143 141 135 130 134 143 150 152 152 154 161 175 182 181 173 170 167 165 164 164 159 151 144 139 130 118 110 108 110 111 106 100 93 89 85 82 78 74
196 193 192 195 198 199 199 198 199 201 202 203 205 206 207 207 208 209 210 211 212 214 215 215 215 215 217 219 223 228 233 229 221 213 206 202 202 201 197 188 183 183 186 184 176 164 156 154 154 154 147 137 137 143 151 154 155 156 162 168 172 172 169 166 164 163 165 165 161 155 148 143 134 124 114 111 110 106 99 92 87 83 83 85 84 80
201 198 197 200 205 209 210 209 209 208 206 205 205 205 203 201 200 201 203 205 207 209 211 213 213 214 214 214 216 218 221 222 220 215 209 205 203 203 201 195 188 186 186 185 179 170 162 159 157 156 152 146 144 146 150 154 158 160 160 157 155 158 163 163 161 161 164 165 162 156 149 144 135 123 112 104 97 90 85 79 74 72 73 73 73 71
201 197 198 204 210 214 216 218 217 214 210 206 202 199 198 196 193 192 193 196 198 201 205 207 207 205 205 205 205 204 205 206 208 209 208 205 204 203 202 201 196 190 187 184 180 174 168 162 156 153 150 147 147 148 150 155 159 161 159 153 153 157 159 158 158 159 161 162 161 155 146 138 127 115 104 95 87 82 79 74 69 67 67 66 65 61
201 200 204 210 212 213 215 217 215 212 210 207 201 196 196 195 193 190 186 183 183 187 193 194 190 182 174 171 175 181 186 191 197 201 203 203 203 202 202 204 202 196 190 183 176 173 172 168 161 155 151 148 145 146 151 157 160 161 159 156 155 155 153 155 157 159 158 157 155 149 140 129 117 106 97 90 85 82 79 74 70 67 66 65 64 61
206 209 213 215 215 215 215 212 209 206 205 202 198 196 197 196 194 191 186 180 176 176 180 182 179 168 151 142 144 154 165 176 186 194 198 200 201 201 202 205 206 202 195 184 174 168 171 170 164 158 156 154 150 148 152 157 158 157 157 157 154 148 141 151 157 159 158 153 148 141 133 122 112 103 96 91 86 82 79 75 73 71 70 68 66 64
213 215 216 214 213 212 211 206 203 201 200 197 194 193 193 192 192 190 186 179 175 172 171 171 169 160 142 131 130 136 147 161 174 184 191 195 197 199 202 206 208 205 199 190 177 167 164 162 159 159 159 157 154 152 155 158 158 158 158 161 160 157 153 154 156 157 155 151 145 138 130 120 112 105 100 93 87 82 78 76 75 74 72 71 69 67
217 214 210 208 206 203 199 197 197 198 197 196 193 190 188 188 190 189 186 178 173 169 167 167 161 147 130 125 127 131 135 144 156 169 179 186 191 195 200 203 202 198 196 193 187 177 166 157 155 157 159 157 155 154 156 159 162 164 167 169 170 167 162 159 158 158 154 149 143 136 129 121 114 107 99 90 83 78 76 74 72 71 70 69 67 66
214 208 203 201 199 195 192 194 194 193 192 191 190 188 187 187 188 188 187 180 172 166 165 167 160 147 135 133 133 132 132 136 144 155 166 175 181 186 191 194 192 190 188 188 188 184 176 165 159 157 155 154 153 156 160 163 167 171 174 175 172 166 160 158 159 159 156 150 143 137 131 125 117 106 95 87 80 76 74 72 70 67 66 66 65 64
210 203 198 196 192 191 192 192 191 188 186 185 185 185 185 185 185 184 184 181 173 165 161 162 159 151 144 144 142 139 135 135 139 146 154 162 168 172 174 177 179 181 180 177 174 172 170 167 164 160 155 150 149 154 163 168 171 172 172 171 167 162 158 158 159 160 158 153 145 139 133 126 115 104 96 88 81 76 73 71 69 67 66 65 64 64
208 202 197 194 191 188 188 188 187 184 182 182 182 183 183 184 183 180 177 176 172 165 159 157 153 149 147 147 147 145 142 139 139 141 145 149 153 157 159 160 162 163 162 158 154 151 151 154 158 160 159 155 152 154 161 167 169 168 165 163 161 159 157 158 160 160 159 154 148 142 135 125 113 103 96 88 81 75 71 69 68 67 67 66 65 65
210 202 198 194 191 188 186 186 185 184 182 180 179 179 180 182 182 179 176 173 170 165 162 158 154 149 147 147 148 148 145 143 142 142 143 145 146 147 147 147 144 141 137 135 134 134 135 138 144 152 159 162 160 159 160 162 163 163 160 159 158 157 156 157 159 159 158 155 149 143 136 126 117 108 99 90 83 77 72 69 67 67 67 67 67 67
213 206 202 197 193 190 189 188 186 184 183 181 177 175 176 177 178 178 177 174 170 167 166 163 159 154 151 150 149 148 146 144 143 143 144 146 147 145 143 141 137 131 125 122 122 121 120 118 123 133 146 157 162 162 160 160 160 160 158 157 157 156 154 155 157 158 157 154 149 142 134 125 117 109 101 94 87 80 74 69 67 66 67 69 70 70
219 212 206 201 197 194 192 190 188 186 184 181 178 175 173 173 174 175 175 174 172 170 170 168 164 159 156 154 153 152 151 149 147 147 148 150 150 148 146 143 139 133 127 125 124 122 117 110 108 114 126 143 156 163 163 161 160 159 156 156 157 156 154 154 155 156 155 152 147 141 133 125 117 111 105 99 91 83 76 71 67 67 68 70 71 71